SV8FES-1 Weather Reports


time (UTC)temp
C
wind
direction
speed
KPH
gust
KPH
rain 1hr
cm
rain 24hr
cm
rain mn
cm
humidity
%
barometer
mb
20260504110703 16 317 19.3 62.8 0.00 0.08 0.00 44 1017.7
20260504110616 16 316 19.3 62.8 0.00 0.08 0.00 44 1017.9
20260504110504 17 320 19.3 62.8 0.00 0.08 0.00 45 1017.7
20260504110416 17 320 19.3 45.1 0.00 0.08 0.00 44 1017.8
20260504110304 17 319 19.3 45.1 0.00 0.08 0.00 44 1017.9
20260504110216 17 315 19.3 45.1 0.00 0.08 0.00 45 1017.9
20260504110104 16 313 19.3 45.1 0.00 0.08 0.00 44 1017.8
20260504100504 16 317 24.1 56.3 0.00 0.08 0.00 45 1018.1
20260504100416 16 319 24.1 56.3 0.00 0.08 0.00 46 1018.1
20260504100304 16 318 24.1 53.1 0.00 0.08 0.00 46 1018.1
20260504100216 16 315 24.1 53.1 0.00 0.08 0.00 46 1018.0
20260504100104 16 315 24.1 53.1 0.00 0.08 0.00 45 1018.0
20260504090105 16 318 19.3 46.7 0.00 0.10 0.00 48 1018.0
20260504081904 15 326 17.7 49.9 0.00 0.10 0.00 47 1017.8
20260504081817 15 327 17.7 49.9 0.00 0.10 0.00 47 1017.8
20260504081705 15 331 17.7 49.9 0.00 0.10 0.00 47 1017.8
20260504081618 15 329 17.7 49.9 0.00 0.10 0.00 47 1017.8
20260504081505 15 330 19.3 49.9 0.00 0.10 0.00 47 1017.8
20260504081418 15 323 19.3 53.1 0.00 0.10 0.00 47 1017.7
20260504081304 15 326 19.3 53.1 0.00 0.10 0.00 47 1017.8
20260504081218 15 324 19.3 53.1 0.00 0.10 0.00 47 1017.8
20260504081104 15 326 19.3 53.1 0.00 0.10 0.00 48 1017.8
20260504081017 15 324 19.3 59.5 0.00 0.10 0.00 48 1017.8
20260504080904 15 322 19.3 59.5 0.00 0.10 0.00 48 1017.6
20260504080817 15 321 19.3 59.5 0.00 0.10 0.00 49 1017.7
20260504080704 15 324 19.3 59.5 0.00 0.10 0.00 49 1017.7
20260504080617 15 324 19.3 59.5 0.00 0.10 0.00 49 1017.6
20260504080504 15 324 17.7 59.5 0.00 0.10 0.00 49 1017.6
20260504080417 15 328 17.7 59.5 0.00 0.10 0.00 49 1017.7
20260504080304 15 332 17.7 59.5 0.00 0.10 0.00 50 1017.7
20260504080218 15 333 17.7 59.5 0.00 0.10 0.00 50 1017.7
20260504080105 15 331 17.7 59.5 0.00 0.10 0.00 49 1017.7
20260504070304 15 327 20.9 56.3 0.00 0.10 0.00 49 1017.1
20260504070219 15 325 20.9 56.3 0.00 0.10 0.00 50 1017.2
20260504070104 15 322 20.9 56.3 0.00 0.10 0.00 51 1017.0
20260504060221 14 329 16.1 45.1 0.00 0.10 0.00 54 1016.6
20260504060105 14 336 16.1 45.1 0.00 0.10 0.00 55 1016.6
20260504050704 13 325 17.7 45.1 0.00 0.10 0.00 57 1016.4
20260504050620 13 325 17.7 49.9 0.00 0.10 0.00 56 1016.4
20260504050504 13 326 16.1 49.9 0.00 0.10 0.00 56 1016.3
20260504050419 13 326 16.1 49.9 0.00 0.10 0.00 56 1016.4
20260504050304 13 325 16.1 49.9 0.00 0.10 0.00 57 1016.3
20260504050219 13 327 14.5 49.9 0.00 0.10 0.00 57 1016.3
20260504050104 13 330 14.5 49.9 0.00 0.10 0.00 57 1016.2
20260504050020 13 331 14.5 49.9 0.00 0.10 0.00 57 1016.2
20260504045904 13 339 14.5 49.9 0.00 0.10 0.00 57 1016.1
20260504045821 13 338 16.1 49.9 0.00 0.10 0.00 57 1016.3
20260504045704 13 337 16.1 49.9 0.00 0.10 0.00 57 1016.2
20260504045619 13 339 16.1 45.1 0.00 0.10 0.00 57 1016.1
20260504045505 13 335 17.7 45.1 0.00 0.10 0.00 57 1016.1
20260504045420 13 332 17.7 45.1 0.00 0.10 0.00 57 1016.1
20260504045305 13 335 17.7 45.1 0.00 0.10 0.00 57 1016.1
20260504045219 13 336 17.7 45.1 0.00 0.10 0.00 57 1016.1
20260504045104 13 337 19.3 45.1 0.00 0.10 0.00 57 1016.2
20260504045020 13 333 19.3 45.1 0.00 0.10 0.00 57 1016.1
20260504044905 13 326 17.7 45.1 0.00 0.10 0.00 57 1016.1
20260504044820 13 325 17.7 45.1 0.00 0.10 0.00 57 1016.1
20260504044705 13 329 17.7 45.1 0.00 0.10 0.00 57 1016.1
20260504044620 13 327 17.7 45.1 0.00 0.10 0.00 57 1016.1
20260504044505 13 328 17.7 45.1 0.00 0.10 0.00 57 1016.1
20260504044420 13 330 17.7 45.1 0.00 0.10 0.00 57 1016.2
20260504044305 13 328 16.1 45.1 0.00 0.10 0.00 56 1016.2
20260504044220 13 326 16.1 45.1 0.00 0.10 0.00 56 1016.2
20260504044105 13 327 16.1 45.1 0.00 0.10 0.00 56 1016.2
20260504044020 13 325 16.1 46.7 0.00 0.10 0.00 56 1016.4
20260504043904 13 325 16.1 46.7 0.00 0.10 0.00 57 1016.2
20260504043819 13 325 16.1 46.7 0.00 0.10 0.00 57 1016.2
20260504043704 13 322 16.1 46.7 0.00 0.10 0.00 58 1016.1
20260504043620 13 326 16.1 46.7 0.00 0.10 0.00 58 1016.1
20260504043504 13 325 16.1 46.7 0.00 0.10 0.00 58 1016.2
20260504043419 13 327 16.1 46.7 0.00 0.10 0.00 58 1016.1
20260504043304 13 329 16.1 46.7 0.00 0.10 0.00 58 1016.1
20260504043220 13 331 16.1 46.7 0.00 0.10 0.00 58 1016.1
20260504043104 13 333 16.1 46.7 0.00 0.10 0.00 59 1016.1
20260504043019 13 334 16.1 45.1 0.00 0.10 0.00 59 1016.1
20260504042904 13 337 16.1 45.1 0.00 0.10 0.00 59 1016.2
20260504042821 13 336 16.1 45.1 0.00 0.10 0.00 59 1016.1
20260504042705 13 332 16.1 45.1 0.00 0.10 0.00 59 1016.1
20260504042619 13 331 17.7 45.1 0.00 0.10 0.00 58 1016.2
20260504042504 13 331 17.7 53.1 0.00 0.10 0.00 58 1016.1
20260504042420 13 328 17.7 53.1 0.00 0.10 0.00 58 1016.1
20260504042305 13 325 17.7 56.3 0.00 0.10 0.00 58 1016.3
20260504042220 13 325 17.7 56.3 0.00 0.10 0.00 59 1016.1
20260504042105 13 321 17.7 56.3 0.00 0.10 0.00 58 1016.2
20260504042020 13 322 17.7 56.3 0.00 0.10 0.00 58 1016.0
20260504041904 13 320 17.7 66.0 0.00 0.10 0.00 58 1016.1
20260504041820 13 319 17.7 66.0 0.00 0.10 0.00 58 1016.2
20260504041705 13 321 17.7 66.0 0.00 0.10 0.00 58 1016.1
20260504041619 13 320 17.7 66.0 0.00 0.10 0.00 58 1016.0
20260504041504 13 317 17.7 66.0 0.00 0.10 0.00 58 1016.1
20260504041420 13 317 17.7 66.0 0.00 0.10 0.00 58 1016.1
20260504041305 13 317 17.7 66.0 0.00 0.10 0.00 58 1015.9
20260504041219 13 316 17.7 66.0 0.00 0.10 0.00 59 1016.0
20260504041104 13 312 17.7 66.0 0.00 0.10 0.00 59 1015.9
20260504041020 13 310 17.7 66.0 0.00 0.10 0.00 59 1016.0
20260504040905 13 309 17.7 49.9 0.00 0.10 0.00 59 1016.0
20260504040820 13 310 17.7 49.9 0.00 0.10 0.00 60 1016.0
20260504040705 13 309 17.7 49.9 0.00 0.10 0.00 60 1015.9
20260504040621 13 307 17.7 35.4 0.00 0.10 0.00 60 1016.1
20260504040504 13 306 19.3 35.4 0.00 0.10 0.00 60 1016.0
20260504040420 13 302 19.3 41.8 0.00 0.10 0.00 60 1015.8
20260504040304 13 292 19.3 41.8 0.00 0.10 0.00 60 1015.8
20260504040221 13 287 19.3 41.8 0.00 0.10 0.00 60 1015.8
20260503225918 13 324 17.7 62.8 0.00 0.15 0.00 59 1015.2
20260503225804 13 327 17.7 62.8 0.00 0.15 0.00 59 1015.4
20260503225718 13 332 17.7 62.8 0.00 0.15 0.00 59 1015.2
20260503225604 13 333 16.1 62.8 0.00 0.15 0.00 59 1015.3
20260503225519 13 334 16.1 62.8 0.00 0.15 0.00 59 1015.3
20260503225404 13 332 16.1 62.8 0.00 0.15 0.00 59 1015.1
20260503225318 13 333 16.1 62.8 0.00 0.15 0.00 59 1015.1
20260503225204 13 335 17.7 46.7 0.00 0.15 0.00 59 1015.1
20260503225119 13 340 17.7 46.7 0.00 0.15 0.00 59 1015.1
20260503225004 13 341 17.7 46.7 0.00 0.15 0.00 59 1015.2
20260503224919 13 336 19.3 46.7 0.00 0.15 0.00 59 1015.1
20260503224803 13 335 19.3 46.7 0.00 0.15 0.00 59 1015.2
20260503224718 13 333 19.3 46.7 0.00 0.15 0.00 60 1015.2
20260503224604 13 329 20.9 46.7 0.00 0.15 0.00 60 1015.2
20260503224519 13 329 20.9 49.9 0.00 0.15 0.00 60 1015.1
20260503224403 13 329 22.5 49.9 0.00 0.15 0.00 60 1015.2
20260503224319 13 326 22.5 49.9 0.00 0.15 0.00 60 1015.2
20260503224204 13 326 22.5 49.9 0.00 0.15 0.00 60 1015.1
20260503224118 13 322 24.1 49.9 0.00 0.15 0.00 59 1015.1
20260503224004 13 321 24.1 56.3 0.00 0.15 0.00 59 1015.1
20260503223918 13 322 24.1 56.3 0.00 0.15 0.00 59 1015.1
20260503223804 13 320 22.5 67.6 0.00 0.15 0.00 59 1015.1
20260503223718 13 317 22.5 67.6 0.00 0.15 0.00 59 1015.1
20260503223604 13 314 22.5 67.6 0.00 0.15 0.00 60 1015.3
20260503223519 13 315 22.5 67.6 0.00 0.15 0.00 60 1015.2
20260503223404 13 314 22.5 67.6 0.00 0.15 0.00 61 1015.2
20260503223319 13 314 20.9 67.6 0.00 0.15 0.00 61 1015.1
20260503223204 13 314 20.9 67.6 0.00 0.15 0.00 61 1015.1
20260503223119 13 316 20.9 67.6 0.00 0.15 0.00 62 1015.2
20260503223004 13 315 20.9 67.6 0.00 0.15 0.00 63 1015.0
20260503222918 13 316 20.9 67.6 0.00 0.15 0.00 63 1015.2
20260503222804 13 316 20.9 53.1 0.00 0.15 0.00 64 1015.0
20260503222718 13 319 20.9 49.9 0.00 0.15 0.00 64 1015.0
20260503222604 13 321 22.5 49.9 0.00 0.15 0.00 64 1014.9
20260503222518 13 320 22.5 49.9 0.00 0.15 0.00 63 1015.0
20260503222404 13 317 22.5 49.9 0.00 0.15 0.00 63 1015.0
20260503222320 13 317 22.5 67.6 0.00 0.15 0.00 63 1015.0
20260503222204 13 317 22.5 67.6 0.00 0.15 0.00 63 1015.0
20260503222118 13 317 22.5 67.6 0.00 0.15 0.00 63 1014.9
20260503222004 13 318 24.1 67.6 0.00 0.15 0.00 64 1014.9
20260503221918 13 320 24.1 67.6 0.00 0.15 0.00 64 1015.0
20260503221804 13 320 24.1 67.6 0.00 0.15 0.00 63 1015.0
20260503221718 13 319 24.1 67.6 0.00 0.15 0.00 63 1015.0
20260503221604 13 320 24.1 67.6 0.00 0.15 0.00 62 1015.0
20260503221518 13 319 24.1 67.6 0.00 0.15 0.00 62 1015.1
20260503221404 13 321 24.1 67.6 0.00 0.15 0.00 63 1015.1
20260503221318 13 320 22.5 67.6 0.00 0.15 0.00 62 1015.0
20260503221204 13 321 22.5 67.6 0.00 0.15 0.00 62 1014.8
20260503221118 13 320 22.5 67.6 0.00 0.15 0.00 61 1015.0
20260503221004 13 318 22.5 67.6 0.00 0.15 0.00 61 1015.0
20260503220918 13 316 20.9 67.6 0.00 0.15 0.00 61 1014.8
20260503220804 13 316 20.9 62.8 0.00 0.15 0.00 62 1015.0
20260503220718 13 319 20.9 66.0 0.00 0.15 0.00 62 1014.9
20260503220604 13 317 19.3 66.0 0.00 0.15 0.00 64 1015.0
20260503220518 13 318 19.3 66.0 0.00 0.15 0.00 64 1014.9
20260503220404 13 320 19.3 66.0 0.00 0.15 0.00 65 1014.8
20260503220319 13 324 19.3 66.0 0.00 0.15 0.00 64 1014.8
20260503220204 13 325 20.9 66.0 0.00 0.15 0.00 64 1014.9
20260503220118 13 329 20.9 66.0 0.00 0.15 0.00 64 1014.8
20260503220004 13 332 20.9 66.0 0.00 0.15 0.00 64 1014.9
20260503215918 13 332 20.9 66.0 0.00 0.15 0.00 64 1014.9
20260503215804 13 333 22.5 66.0 0.00 0.15 0.00 64 1014.9
20260503215718 13 332 22.5 66.0 0.00 0.15 0.00 63 1014.8
20260503215603 13 334 24.1 45.1 0.00 0.15 0.00 64 1015.0
20260503215518 13 332 24.1 66.0 0.00 0.15 0.00 64 1014.9
20260503215404 13 328 24.1 66.0 0.00 0.15 0.00 64 1014.9
20260503215318 13 326 25.7 66.0 0.00 0.15 0.00 65 1014.9
20260503215204 13 324 25.7 66.0 0.00 0.15 0.00 65 1014.8
20260503215118 13 321 25.7 66.0 0.00 0.15 0.00 65 1014.9
20260503215004 13 320 25.7 66.0 0.00 0.15 0.00 65 1014.9
20260503214918 13 319 25.7 66.0 0.00 0.15 0.00 65 1014.7
20260503214804 13 319 25.7 66.0 0.00 0.15 0.00 65 1014.8
20260503214719 13 319 25.7 66.0 0.00 0.15 0.00 65 1014.8
20260503214604 13 319 25.7 66.0 0.00 0.15 0.00 65 1014.7
20260503214518 13 322 25.7 77.2 0.00 0.15 0.00 65 1014.8
20260503214404 13 321 25.7 77.2 0.00 0.15 0.00 65 1014.6
20260503214318 13 322 24.1 77.2 0.00 0.15 0.00 65 1014.7
20260503214204 13 323 24.1 77.2 0.00 0.15 0.00 65 1014.8
20260503214118 13 324 24.1 77.2 0.00 0.15 0.00 65 1014.8
20260503214004 13 324 24.1 77.2 0.00 0.15 0.00 65 1014.7
20260503213918 13 325 24.1 77.2 0.00 0.15 0.00 65 1014.9
20260503213804 13 326 22.5 77.2 0.00 0.15 0.00 65 1014.7
20260503213718 13 324 22.5 85.3 0.00 0.15 0.00 64 1014.7
20260503213604 13 323 22.5 85.3 0.00 0.15 0.00 64 1014.8
20260503213518 13 322 22.5 85.3 0.00 0.15 0.00 64 1014.8
20260503213404 13 322 22.5 85.3 0.00 0.15 0.00 64 1014.9
20260503213318 13 320 20.9 85.3 0.00 0.15 0.00 65 1014.9
20260503213203 13 322 20.9 85.3 0.00 0.15 0.00 65 1014.8
20260503213118 13 322 20.9 85.3 0.00 0.15 0.00 66 1014.8
20260503213004 13 323 20.9 85.3 0.00 0.15 0.00 66 1014.8
20260503212918 13 321 22.5 85.3 0.00 0.15 0.00 66 1014.8
20260503212803 13 322 22.5 85.3 0.00 0.15 0.00 66 1014.7
20260503212718 13 329 22.5 49.9 0.00 0.15 0.00 67 1014.7
20260503212604 13 335 22.5 49.9 0.00 0.15 0.00 67 1014.7
20260503212518 13 337 24.1 49.9 0.00 0.15 0.00 66 1014.8
20260503212403 12 341 24.1 49.9 0.00 0.15 0.00 66 1014.7
20260503212318 12 347 24.1 49.9 0.00 0.15 0.00 66 1014.8
20260503212204 12 344 24.1 53.1 0.00 0.15 0.00 66 1014.7
20260503212118 12 339 25.7 91.7 0.00 0.15 0.00 66 1014.7
20260503212004 12 337 25.7 91.7 0.00 0.15 0.00 66 1014.6
20260503211919 12 339 25.7 91.7 0.00 0.15 0.00 66 1014.5
20260503211803 12 336 25.7 91.7 0.00 0.15 0.00 66 1014.6
20260503211718 12 334 25.7 91.7 0.00 0.15 0.00 65 1014.6
20260503211604 12 330 25.7 91.7 0.00 0.15 0.00 65 1014.9
20260503211518 12 327 24.1 91.7 0.00 0.15 0.00 65 1014.6
20260503211405 12 326 24.1 91.7 0.00 0.15 0.00 65 1014.7
20260503211304 12 323 24.1 91.7 0.00 0.15 0.00 66 1014.8
20260503211218 13 323 24.1 91.7 0.00 0.15 0.00 66 1014.8
20260503211104 13 328 24.1 67.6 0.00 0.15 0.00 68 1014.6
20260503211019 13 329 24.1 67.6 0.00 0.15 0.00 67 1014.9
20260503210904 13 328 22.5 67.6 0.00 0.15 0.00 68 1014.8
20260503210818 13 327 22.5 67.6 0.00 0.15 0.00 67 1014.8
20260503210704 13 327 22.5 67.6 0.00 0.15 0.00 67 1014.6
20260503210618 13 329 22.5 70.8 0.00 0.15 0.00 67 1014.7
20260503210504 13 333 22.5 70.8 0.00 0.15 0.00 67 1014.8
20260503210418 13 333 22.5 70.8 0.00 0.15 0.00 67 1014.7
20260503210303 13 333 22.5 70.8 0.00 0.15 0.00 67 1014.6
20260503210218 13 337 22.5 70.8 0.00 0.15 0.00 67 1014.6
20260503210103 13 339 22.5 70.8 0.00 0.15 0.00 67 1014.5
20260503210025 13 337 22.5 70.8 0.00 0.15 0.00 67 1014.5
20260503205904 13 338 22.5 70.8 0.00 0.15 0.15 67 1014.5
20260503205818 13 338 22.5 70.8 0.00 0.15 0.15 67 1014.5
20260503205704 13 334 22.5 70.8 0.00 0.15 0.15 67 1014.5
20260503205618 13 331 22.5 67.6 0.00 0.15 0.15 67 1014.5
20260503205504 13 326 22.5 67.6 0.00 0.15 0.15 67 1014.7
20260503205418 13 328 22.5 67.6 0.00 0.15 0.15 68 1014.8
20260503205304 13 327 24.1 67.6 0.00 0.15 0.15 68 1014.6
20260503205218 13 326 24.1 67.6 0.00 0.15 0.15 68 1014.5
20260503205104 13 323 24.1 67.6 0.00 0.15 0.15 68 1014.6
20260503205019 13 328 24.1 67.6 0.00 0.15 0.15 69 1014.5
20260503204905 13 330 24.1 67.6 0.00 0.15 0.15 69 1014.3
20260503204819 13 332 24.1 67.6 0.00 0.15 0.15 69 1014.4
20260503204704 13 332 22.5 56.3 0.00 0.15 0.15 69 1014.6
20260503204618 13 332 22.5 56.3 0.00 0.15 0.15 69 1014.4
20260503204504 13 335 20.9 56.3 0.00 0.15 0.15 69 1014.4
20260503204417 13 331 20.9 56.3 0.00 0.15 0.15 69 1014.4
20260503204303 13 333 19.3 56.3 0.00 0.15 0.15 69 1014.3
20260503204218 13 336 19.3 56.3 0.00 0.15 0.15 69 1014.3
20260503204104 13 332 19.3 56.3 0.00 0.15 0.15 69 1014.5
20260503204018 13 328 19.3 56.3 0.00 0.15 0.15 69 1014.5
20260503203904 13 327 19.3 56.3 0.00 0.15 0.15 69 1014.4
20260503203819 13 329 19.3 56.3 0.00 0.15 0.15 69 1014.3
20260503203704 13 331 19.3 56.3 0.00 0.15 0.15 69 1014.4
20260503203617 13 331 19.3 53.1 0.00 0.15 0.15 69 1014.5
20260503203504 13 328 19.3 53.1 0.00 0.15 0.15 70 1014.6
20260503203418 13 327 20.9 53.1 0.00 0.15 0.15 71 1014.7
20260503203304 13 323 20.9 45.1 0.00 0.15 0.15 71 1014.2
20260503203218 13 321 20.9 45.1 0.00 0.15 0.15 71 1014.2
20260503203104 13 324 20.9 56.3 0.00 0.15 0.15 71 1014.3
20260503203018 13 322 20.9 56.3 0.00 0.15 0.15 71 1014.2
20260503202904 13 320 20.9 56.3 0.00 0.15 0.15 72 1014.2
20260503202818 13 316 20.9 56.3 0.00 0.15 0.15 72 1014.2
20260503202704 13 316 20.9 56.3 0.00 0.15 0.15 72 1014.3
20260503202618 13 320 20.9 56.3 0.00 0.15 0.15 71 1014.3
20260503202504 12 323 20.9 56.3 0.00 0.15 0.15 72 1014.3
20260503202418 12 328 20.9 56.3 0.00 0.15 0.15 71 1014.4
20260503202304 12 332 20.9 56.3 0.00 0.15 0.15 71 1014.3
20260503202217 12 333 20.9 56.3 0.00 0.15 0.15 72 1014.3
20260503202103 12 331 22.5 56.3 0.00 0.15 0.15 72 1014.3
20260503202018 12 332 22.5 56.3 0.00 0.15 0.15 72 1014.4
20260503201904 12 336 22.5 56.3 0.00 0.15 0.15 72 1014.3
20260503201818 12 338 24.1 56.3 0.00 0.15 0.15 72 1014.4
20260503201704 12 336 24.1 56.3 0.00 0.15 0.15 72 1014.5
20260503201618 12 328 25.7 49.9 0.00 0.15 0.15 72 1014.5
20260503201504 12 327 25.7 56.3 0.00 0.15 0.15 72 1014.4
20260503201418 12 324 25.7 56.3 0.00 0.15 0.15 72 1014.4
20260503201304 12 321 27.4 56.3 0.00 0.15 0.15 72 1014.6
20260503201218 12 319 27.4 67.6 0.00 0.15 0.15 72 1014.4
20260503201104 12 321 27.4 70.8 0.00 0.15 0.15 71 1014.5
20260503201018 12 324 27.4 70.8 0.00 0.15 0.15 71 1014.5
20260503200903 12 324 27.4 70.8 0.00 0.15 0.15 70 1014.6
20260503200818 12 324 25.7 70.8 0.00 0.15 0.15 70 1014.5
20260503200704 12 327 25.7 70.8 0.00 0.15 0.15 70 1014.6
20260503200618 12 326 25.7 70.8 0.00 0.15 0.15 69 1014.4
20260503200504 12 325 24.1 70.8 0.00 0.15 0.15 69 1014.4
20260503200418 12 327 24.1 70.8 0.00 0.15 0.15 69 1014.6
20260503200304 12 329 24.1 70.8 0.00 0.15 0.15 69 1014.8
20260503200218 13 332 22.5 70.8 0.00 0.15 0.15 70 1014.5
20260503200104 13 333 22.5 66.0 0.03 0.15 0.15 70 1014.5
20260503200018 13 332 22.5 66.0 0.03 0.15 0.15 69 1014.5
20260503195904 13 328 20.9 66.0 0.05 0.15 0.15 69 1014.2
20260503195818 13 330 20.9 66.0 0.05 0.15 0.15 69 1014.1
20260503195704 13 329 20.9 66.0 0.05 0.15 0.15 69 1014.3
20260503195619 13 331 19.3 59.5 0.05 0.15 0.15 69 1014.3
20260503195505 13 332 19.3 59.5 0.05 0.15 0.15 69 1014.5
20260503195419 13 328 19.3 59.5 0.05 0.15 0.15 69 1014.5
20260503195305 13 326 19.3 59.5 0.05 0.15 0.15 69 1014.3
20260503195218 13 325 17.7 53.1 0.05 0.15 0.15 69 1014.3
20260503195104 13 323 17.7 53.1 0.05 0.15 0.15 69 1014.2
20260503195018 13 323 17.7 53.1 0.05 0.15 0.15 70 1014.3
20260503194904 13 326 17.7 49.9 0.05 0.15 0.15 70 1014.3
20260503194818 13 323 17.7 49.9 0.05 0.15 0.15 70 1014.2
20260503194704 13 324 17.7 49.9 0.05 0.15 0.15 70 1014.2
20260503194618 13 325 17.7 49.9 0.05 0.15 0.15 70 1014.2
20260503194504 12 324 19.3 49.9 0.05 0.15 0.15 70 1014.2
20260503194418 12 323 19.3 49.9 0.08 0.15 0.15 70 1014.2
20260503194304 12 320 19.3 46.7 0.08 0.15 0.15 71 1014.1
20260503194218 12 322 20.9 46.7 0.08 0.15 0.15 71 1014.2
20260503194104 12 326 20.9 41.8 0.08 0.15 0.15 71 1014.2
20260503194018 12 326 20.9 41.8 0.08 0.15 0.15 71 1014.2
20260503193904 12 321 22.5 41.8 0.08 0.15 0.15 72 1014.3
20260503193818 12 325 22.5 49.9 0.08 0.15 0.15 72 1014.3
20260503193704 12 326 22.5 49.9 0.08 0.15 0.15 72 1014.1
20260503193618 12 329 24.1 49.9 0.08 0.15 0.15 72 1014.1
20260503193505 12 329 24.1 49.9 0.08 0.15 0.15 72 1014.2
20260503193419 12 331 24.1 49.9 0.08 0.15 0.15 72 1014.1
20260503193305 12 333 24.1 49.9 0.08 0.15 0.15 72 1014.0
20260503193218 12 327 24.1 49.9 0.08 0.15 0.15 72 1014.3
20260503193104 12 324 22.5 49.9 0.08 0.15 0.15 72 1014.2
20260503193018 12 324 22.5 49.9 0.08 0.15 0.15 72 1014.0
20260503192904 12 323 22.5 66.0 0.08 0.15 0.15 72 1014.1
20260503192818 12 318 22.5 66.0 0.08 0.15 0.15 72 1014.2
20260503192704 12 317 20.9 66.0 0.08 0.15 0.15 72 1014.2
20260503192618 12 316 20.9 66.0 0.08 0.15 0.15 72 1014.3
20260503192504 12 316 20.9 66.0 0.08 0.15 0.15 73 1014.4
20260503192418 12 315 20.9 66.0 0.08 0.15 0.15 73 1014.2
20260503192305 12 319 20.9 66.0 0.08 0.15 0.15 74 1014.2
20260503192218 12 326 20.9 66.0 0.08 0.15 0.15 74 1014.3
20260503192104 12 326 20.9 66.0 0.08 0.15 0.15 75 1014.3
20260503192018 12 327 22.5 66.0 0.08 0.15 0.15 75 1014.3
20260503191904 11 329 22.5 62.8 0.08 0.15 0.15 76 1014.0
20260503191818 11 330 24.1 49.9 0.08 0.15 0.15 76 1014.2
20260503191704 11 331 24.1 53.1 0.08 0.15 0.15 76 1014.3
20260503191619 11 329 25.7 53.1 0.08 0.15 0.15 76 1014.2
20260503191505 11 325 25.7 53.1 0.08 0.15 0.15 77 1014.1
20260503191419 11 324 25.7 62.8 0.08 0.15 0.15 77 1014.0
20260503191304 11 321 27.4 62.8 0.08 0.15 0.15 77 1014.1
20260503191218 11 321 27.4 62.8 0.08 0.15 0.15 77 1014.1
20260503191104 11 321 27.4 62.8 0.08 0.15 0.15 77 1014.0
20260503191019 11 320 25.7 62.8 0.08 0.15 0.15 77 1014.1
20260503190905 11 320 25.7 62.8 0.08 0.15 0.15 77 1013.9
20260503190819 11 326 25.7 62.8 0.08 0.15 0.15 77 1014.0
20260503190704 11 326 25.7 66.0 0.08 0.15 0.15 77 1014.2
20260503190618 11 330 24.1 66.0 0.08 0.15 0.15 77 1014.1
20260503190504 11 331 24.1 66.0 0.08 0.15 0.15 76 1014.1
20260503190418 11 334 24.1 66.0 0.08 0.15 0.15 76 1014.2
20260503190305 11 335 24.1 66.0 0.08 0.15 0.15 76 1014.3
20260503190218 11 336 24.1 66.0 0.05 0.15 0.15 75 1014.1
20260503190105 11 342 24.1 66.0 0.05 0.15 0.15 75 1014.2
20260503190017 12 348 22.5 66.0 0.05 0.13 0.13 74 1014.4
20260503185904 12 349 22.5 66.0 0.05 0.13 0.13 74 1014.2
20260503185817 12 341 22.5 66.0 0.03 0.10 0.10 74 1014.1
20260503185704 12 338 22.5 62.8 0.03 0.10 0.10 74 1014.1
20260503185617 12 333 22.5 62.8 0.03 0.10 0.10 73 1014.1
20260503185504 12 333 22.5 62.8 0.03 0.10 0.10 73 1014.0
20260503185418 12 332 22.5 62.8 0.03 0.10 0.10 73 1013.9
20260503185305 12 335 20.9 62.8 0.03 0.10 0.10 73 1013.8
20260503185217 12 336 20.9 62.8 0.03 0.10 0.10 73 1013.8
20260503185104 12 332 22.5 62.8 0.03 0.10 0.10 73 1013.9
20260503185017 12 331 22.5 62.8 0.03 0.10 0.10 73 1013.7
20260503184904 12 331 22.5 62.8 0.03 0.10 0.10 73 1013.6
20260503184817 12 334 22.5 53.1 0.03 0.10 0.10 73 1013.5
20260503184704 12 338 22.5 53.1 0.03 0.10 0.10 74 1013.6
20260503184617 12 343 22.5 53.1 0.03 0.10 0.10 74 1013.6
20260503184503 12 344 22.5 53.1 0.00 0.08 0.08 74 1013.7
20260503184417 12 343 24.1 53.1 0.00 0.08 0.08 74 1013.7
20260503184304 12 340 24.1 53.1 0.00 0.08 0.08 74 1013.5
20260503184217 12 336 24.1 53.1 0.00 0.08 0.08 74 1013.6
20260503184104 12 340 24.1 53.1 0.00 0.08 0.08 73 1013.6
20260503184016 12 338 24.1 53.1 0.00 0.08 0.08 73 1013.4
20260503183904 12 338 25.7 66.0 0.00 0.08 0.08 74 1013.6
20260503183817 12 339 25.7 66.0 0.00 0.08 0.08 74 1013.5
20260503183704 12 335 25.7 66.0 0.00 0.08 0.08 73 1013.7
20260503183617 12 330 25.7 70.8 0.00 0.08 0.08 73 1013.6
20260503183505 12 328 25.7 70.8 0.00 0.08 0.08 73 1013.8
20260503183417 12 331 24.1 70.8 0.00 0.08 0.08 73 1013.7
20260503183304 12 327 24.1 70.8 0.00 0.08 0.08 73 1013.8
20260503183217 12 325 24.1 70.8 0.00 0.08 0.08 72 1013.7
20260503183104 12 322 24.1 70.8 0.00 0.08 0.08 72 1013.7
20260503183017 12 322 22.5 70.8 0.00 0.08 0.08 72 1013.6
20260503182905 12 319 22.5 70.8 0.00 0.08 0.08 70 1013.5
20260503182816 12 318 22.5 70.8 0.00 0.08 0.08 69 1013.6
20260503182704 12 316 20.9 70.8 0.00 0.08 0.08 68 1013.5
20260503182617 13 316 20.9 70.8 0.00 0.08 0.08 68 1013.5
20260503182505 13 315 20.9 70.8 0.00 0.08 0.08 68 1013.6
20260503182417 13 312 22.5 70.8 0.00 0.08 0.08 68 1013.5
20260503182305 13 317 22.5 66.0 0.00 0.08 0.08 70 1013.4
20260503182217 13 321 22.5 56.3 0.00 0.08 0.08 70 1013.2
20260503182104 13 320 22.5 59.5 0.00 0.08 0.08 70 1013.4
20260503182017 13 317 22.5 59.5 0.00 0.08 0.08 70 1013.3
20260503181904 13 322 22.5 59.5 0.00 0.08 0.08 69 1013.2
20260503181816 13 323 22.5 59.5 0.00 0.08 0.08 69 1013.1
20260503181704 13 324 22.5 59.5 0.00 0.08 0.08 69 1013.2
20260503181616 12 325 22.5 59.5 0.00 0.08 0.08 69 1013.1
20260503181505 12 323 22.5 59.5 0.00 0.08 0.08 69 1013.2
20260503181417 12 324 20.9 59.5 0.00 0.08 0.08 69 1013.1
20260503181304 12 321 20.9 59.5 0.00 0.08 0.08 69 1013.3
20260503181216 12 323 19.3 59.5 0.00 0.08 0.08 69 1013.3
20260503181104 12 328 19.3 56.3 0.00 0.08 0.08 69 1013.3
20260503181016 12 332 19.3 56.3 0.00 0.08 0.08 69 1013.3
20260503180904 12 330 19.3 56.3 0.00 0.08 0.08 69 1013.4
20260503180817 12 332 19.3 56.3 0.00 0.08 0.08 69 1013.4
20260503180704 12 335 19.3 49.9 0.00 0.08 0.08 70 1013.4
20260503180617 12 336 19.3 49.9 0.00 0.08 0.08 70 1013.4
20260503180505 12 340 19.3 49.9 0.00 0.08 0.08 70 1013.4
20260503180416 12 340 19.3 49.9 0.00 0.08 0.08 70 1013.4
20260503180304 12 342 20.9 49.9 0.00 0.08 0.08 70 1013.3
20260503180216 12 340 20.9 49.9 0.00 0.08 0.08 70 1013.3
20260503180104 12 335 20.9 59.5 0.00 0.08 0.08 70 1013.2
20260503180017 12 330 20.9 59.5 0.00 0.08 0.08 70 1013.4
20260503175904 12 328 20.9 59.5 0.00 0.08 0.08 70 1013.3
20260503175816 12 324 20.9 59.5 0.00 0.08 0.08 70 1013.3
20260503175704 12 324 20.9 59.5 0.00 0.08 0.08 70 1013.2
20260503175616 12 325 20.9 66.0 0.00 0.08 0.08 70 1013.2
20260503175504 12 325 20.9 66.0 0.00 0.08 0.08 70 1013.3
20260503175417 12 326 22.5 66.0 0.00 0.08 0.08 70 1013.1
20260503175305 12 324 22.5 66.0 0.00 0.08 0.08 70 1013.2
20260503175216 12 321 22.5 66.0 0.00 0.08 0.08 70 1013.3
20260503175104 12 319 22.5 66.0 0.00 0.08 0.08 71 1013.1
20260503175016 12 322 22.5 66.0 0.00 0.08 0.08 70 1013.2
20260503174904 12 326 24.1 66.0 0.00 0.08 0.08 70 1013.3
20260503174817 12 326 24.1 74.0 0.00 0.08 0.08 71 1013.3
20260503174704 12 324 25.7 74.0 0.00 0.08 0.08 71 1013.4
20260503174617 12 319 25.7 74.0 0.00 0.08 0.08 71 1013.3
20260503174503 12 321 25.7 74.0 0.00 0.08 0.08 71 1013.3
20260503174417 12 323 25.7 74.0 0.00 0.08 0.08 71 1013.2
20260503174304 12 323 27.4 74.0 0.00 0.08 0.08 71 1013.2
20260503174216 12 325 27.4 74.0 0.00 0.08 0.08 71 1013.3
20260503174104 12 325 27.4 74.0 0.00 0.08 0.08 71 1013.3
20260503174016 12 324 27.4 74.0 0.00 0.08 0.08 71 1013.3
20260503173904 12 323 27.4 74.0 0.00 0.08 0.08 71 1013.3
20260503173817 12 323 27.4 67.6 0.00 0.08 0.08 71 1013.2
20260503173704 12 325 27.4 67.6 0.00 0.08 0.08 71 1013.3
20260503173616 12 326 27.4 67.6 0.00 0.08 0.08 70 1013.5
20260503173504 12 325 25.7 67.6 0.00 0.08 0.08 70 1013.6
20260503173417 12 323 25.7 67.6 0.00 0.08 0.08 70 1013.8
20260503173304 12 325 25.7 67.6 0.00 0.08 0.08 71 1013.3
20260503173217 12 325 25.7 67.6 0.00 0.08 0.08 71 1013.4
20260503173104 12 327 24.1 67.6 0.00 0.08 0.08 71 1013.4
20260503173017 12 328 24.1 67.6 0.00 0.08 0.08 71 1013.5
20260503172904 12 326 24.1 67.6 0.00 0.08 0.08 71 1013.4
20260503172817 12 324 24.1 67.6 0.00 0.08 0.08 71 1013.1
20260503172705 12 322 24.1 67.6 0.00 0.08 0.08 71 1013.4
20260503172617 12 322 24.1 59.5 0.00 0.08 0.08 70 1013.2
20260503172504 12 325 25.7 59.5 0.00 0.08 0.08 70 1013.2
20260503172416 12 326 25.7 59.5 0.00 0.08 0.08 70 1013.3
20260503172305 12 322 27.4 59.5 0.00 0.08 0.08 69 1013.2
20260503172218 12 322 27.4 49.9 0.00 0.08 0.08 69 1013.0
20260503172104 12 323 29.0 56.3 0.00 0.08 0.08 69 1013.1
20260503172017 12 323 29.0 77.2 0.00 0.08 0.08 69 1013.0
20260503171904 12 325 30.6 77.2 0.00 0.08 0.08 69 1013.0
20260503171817 12 327 30.6 77.2 0.00 0.08 0.08 69 1013.1
20260503171704 12 328 30.6 77.2 0.00 0.08 0.08 69 1013.0
20260503171617 12 327 30.6 77.2 0.00 0.08 0.08 69 1013.2
20260503171504 12 326 29.0 77.2 0.00 0.08 0.08 69 1013.2
20260503171417 12 324 29.0 77.2 0.00 0.08 0.08 69 1013.1
20260503171304 12 328 27.4 77.2 0.00 0.08 0.08 70 1013.3
20260503171217 12 327 27.4 77.2 0.00 0.08 0.08 70 1013.0
20260503171104 12 327 25.7 77.2 0.00 0.08 0.08 71 1013.0
20260503171017 12 326 25.7 74.0 0.00 0.08 0.08 71 1013.1
20260503170904 12 325 24.1 74.0 0.00 0.08 0.08 71 1013.2
20260503170817 12 326 24.1 74.0 0.00 0.08 0.08 71 1013.2
20260503170704 12 329 24.1 74.0 0.00 0.08 0.08 71 1013.1
20260503170617 12 331 24.1 74.0 0.00 0.08 0.08 70 1013.0
20260503170504 12 331 24.1 74.0 0.00 0.08 0.08 70 1012.9
20260503170417 12 331 24.1 74.0 0.00 0.08 0.08 70 1012.8
20260503170304 12 327 24.1 74.0 0.00 0.08 0.08 70 1013.0
20260503170217 12 328 24.1 74.0 0.00 0.08 0.08 70 1012.7
20260503170104 12 326 24.1 74.0 0.00 0.08 0.08 70 1012.7
20260503160217 12 325 25.7 67.6 0.00 0.08 0.08 71 1012.9
20260503150903 12 324 25.7 67.6 0.00 0.08 0.08 69 1012.6
20260503150816 12 324 25.7 67.6 0.00 0.08 0.08 69 1012.3
20260503150703 12 325 27.4 67.6 0.00 0.08 0.08 69 1012.4
20260503150616 12 328 27.4 67.6 0.00 0.08 0.08 69 1012.8
20260503150503 12 324 27.4 67.6 0.00 0.08 0.08 69 1012.4
20260503150416 12 321 27.4 67.6 0.00 0.08 0.08 69 1012.5
20260503150303 12 320 27.4 67.6 0.00 0.08 0.08 69 1012.6
20260503150216 12 318 29.0 67.6 0.00 0.08 0.08 69 1012.7
20260503150104 12 319 29.0 66.0 0.00 0.08 0.08 69 1012.6
20260503140303 12 323 29.0 67.6 0.00 0.08 0.08 68 1012.6
20260503140216 12 325 30.6 67.6 0.00 0.08 0.08 68 1012.4
20260503131416 13 326 25.7 59.5 0.00 0.08 0.08 63 1012.3
20260503131304 13 326 25.7 59.5 0.00 0.08 0.08 63 1012.3
20260503131217 13 324 25.7 59.5 0.00 0.08 0.08 62 1012.2
20260503131103 13 324 25.7 59.5 0.00 0.08 0.08 62 1012.2
20260503131016 13 323 25.7 62.8 0.00 0.08 0.08 62 1012.2
20260503130904 13 327 25.7 62.8 0.00 0.08 0.08 62 1012.2
20260503130816 13 330 25.7 62.8 0.00 0.08 0.08 63 1012.3
20260503130703 13 333 25.7 62.8 0.00 0.08 0.08 63 1012.1
20260503130616 13 332 25.7 66.0 0.00 0.08 0.08 63 1012.4
20260503130503 13 335 25.7 66.0 0.00 0.08 0.08 63 1012.1
20260503130416 13 336 24.1 66.0 0.00 0.08 0.08 63 1012.1
20260503130303 13 333 24.1 66.0 0.00 0.08 0.08 62 1012.1
20260503130216 13 332 24.1 66.0 0.00 0.08 0.08 61 1012.0
20260503130104 13 335 24.1 66.0 0.00 0.08 0.08 61 1012.1
20260503120217 12 319 30.6 67.6 0.00 0.08 0.08 68 1012.2
20260503120103 12 319 32.2 67.6 0.00 0.08 0.08 68 1012.3